Regional Weather Roundup
Issued by NWS Sioux Falls, SD

Home | Current Version | Previous Version | Graphics & Text | Print | Product List | Glossary Off
Versions: 1 2 3 4 5 6 7 8 9 10 11 12 13 14 15 16 17 18 19 20 21 22 23 24 25 26 27 28 29 30 31 32 33 34 35 36 37 38 39 40 41 42 43 44 45 46 47 48 49 50

000
ASUS43 KFSD 230710
RWRFSD

WEATHER ROUNDUP FOR SE SOUTH DAKOTA/SW MINNESOTA/NW IOWA
NATIONAL WEATHER SERVICE SIOUX FALLS SD
200 AM CDT SAT SEP 23 2017

NOTE: "FAIR" INDICATES FEW OR NO CLOUDS BELOW 12,000 FEET WITH NO
SIGNIFICANT WEATHER AND OR OBSTRUCTIONS TO VISIBILITY.


SDZ038>040-050-052>070-230800-
SOUTHEAST SOUTH DAKOTA

CITY           SKY/WX    TMP DP  RH WIND       PRES   REMARKS
BROOKINGS      MOCLDY    61  59  93 NW6       29.87R
CHAMBERLAIN    CLOUDY    55  51  89 W15       29.94R
HURON          CLOUDY    54  52  93 NW10      29.89R
MADISON        FAIR      59  59 100 N5        29.87F
MITCHELL       CLOUDY    57  54  89 NW10      29.91R
SIOUX FALLS    PTCLDY    67  64  90 NW3       29.86R
WINNER         CLOUDY    53  48  83 NW13G23   29.98R
YANKTON        PTCLDY    63  59  87 NW9       29.87R
$$

MNZ071-072-080-081-089-090-097-098-230800-
SOUTHWEST MINNESOTA

CITY           SKY/WX    TMP DP  RH WIND       PRES   REMARKS
FAIRMONT       CLOUDY    76  68  76 S13       29.89S
JACKSON        PTCLDY    73  66  78 S12G20    29.90S
LUVERNE        CLOUDY    73  64  73 S8        29.87R
MARSHALL       PTCLDY    77  68  73 SW15      29.81R
MONTEVIDEO     CLOUDY    72  72 100 N9        29.83R
PIPESTONE      PTCLDY    75  66  73 S12       29.86R
REDWOOD FALLS  PTCLDY    78  67  68 S15       29.80F
TRACY          PTCLDY    77  69  75 S17G23    29.83S
WINDOM         CLOUDY    77  66  69 S10G18    29.87S
WORTHINGTON    PTCLDY    75  68  78 S14       29.88R
$$

IAZ001>003-012>014-020>022-031-032-NEZ013-014-SDZ071-230800-
NORTHWEST IOWA

CITY           SKY/WX    TMP DP  RH WIND       PRES   REMARKS
CHEROKEE       CLEAR     74  69  84 S10       29.88S
DENISON        CLEAR     75  68  78 S13G22    29.91R
ESTHERVILLE    CLEAR     73  69  87 S13       29.89S
LE MARS        PTCLDY    75  68  78 S9        29.86R
ORANGE CITY    PTCLDY    75  72  88 S7        29.88R
SHELDON        PTCLDY    73  68  83 S12       29.86R
SIOUX CITY     PTCLDY    74  69  85 SE8       29.85R
SPENCER        PTCLDY    74  68  81 S10       29.89R
STORM LAKE     CLEAR     73  68  83 S9        29.91R
$$

ABBREVIATIONS USED IN REMARKS
   TC - TEMPERATURE IN CELSIUS
  WCI - WIND CHILL INDEX
   HX - HEAT INDEX
  VSB - VISIBILITY




USA.gov is the U.S. government's official web portal to all federal, state and local government web resources and services.